| time (UTC) | temp F | wind direction | speed knots | gust knots | rain 1hr in | rain 24hr in | rain mn in | humidity % | barometer mb |
| 20260509061221 | 52 | 282 | 0.0 | 0.0 | 0.00 | 0.00 | 0.00 | 95 | 1010.9 |
| 20260509060718 | 52 | 282 | 0.0 | 0.0 | 0.00 | 0.00 | 0.00 | 94 | 1011.0 |
| 20260509060214 | 53 | 282 | 0.0 | 0.0 | 0.00 | 0.00 | 0.00 | 94 | 1010.8 |
| 20260509055710 | 53 | 283 | 0.0 | 0.0 | 0.00 | 0.00 | 0.00 | 94 | 1011.0 |
| 20260509055206 | 53 | 282 | 0.0 | 0.0 | 0.00 | 0.00 | 0.00 | 94 | 1011.1 |
| 20260509054703 | 53 | 281 | 0.0 | 0.0 | 0.00 | 0.00 | 0.00 | 93 | 1010.9 |
| 20260509054200 | 54 | 310 | 0.0 | 0.0 | 0.00 | 0.00 | 0.00 | 93 | 1011.1 |
| 20260509053659 | 54 | 311 | 0.0 | 0.0 | 0.00 | 0.00 | 0.00 | 93 | 1011.0 |
| 20260509053155 | 54 | 313 | 0.9 | 0.9 | 0.00 | 0.00 | 0.00 | 93 | 1010.9 |
| 20260509052653 | 54 | 314 | 0.9 | 0.9 | 0.00 | 0.00 | 0.00 | 93 | 1010.9 |
| 20260509052150 | 54 | 292 | 0.9 | 0.9 | 0.00 | 0.00 | 0.00 | 93 | 1011.0 |
| 20260509051648 | 54 | 296 | 0.0 | 0.9 | 0.00 | 0.00 | 0.00 | 93 | 1010.9 |
| 20260509051145 | 55 | 296 | 0.9 | 0.9 | 0.00 | 0.00 | 0.00 | 92 | 1011.1 |
| 20260509050642 | 55 | 290 | 0.0 | 0.0 | 0.00 | 0.00 | 0.00 | 92 | 1010.9 |
| 20260509050138 | 55 | 291 | 0.0 | 0.0 | 0.00 | 0.00 | 0.00 | 92 | 1010.9 |
| 20260509045636 | 54 | 299 | 0.0 | 0.0 | 0.00 | 0.00 | 0.00 | 93 | 1010.8 |
| 20260509045133 | 54 | 280 | 0.0 | 0.0 | 0.00 | 0.00 | 0.00 | 93 | 1010.7 |
| 20260509044630 | 54 | 318 | 0.0 | 0.0 | 0.00 | 0.00 | 0.00 | 92 | 1010.9 |
| 20260509044127 | 54 | 319 | 0.9 | 0.9 | 0.00 | 0.00 | 0.00 | 92 | 1010.9 |
| 20260509043624 | 55 | 318 | 0.0 | 0.0 | 0.00 | 0.00 | 0.00 | 91 | 1010.9 |
| 20260509043119 | 55 | 318 | 0.0 | 0.0 | 0.00 | 0.00 | 0.00 | 90 | 1010.9 |
| 20260509042616 | 55 | 318 | 0.0 | 0.0 | 0.00 | 0.00 | 0.00 | 90 | 1010.9 |
| 20260509042112 | 55 | 318 | 0.0 | 0.0 | 0.00 | 0.00 | 0.00 | 89 | 1011.0 |
| 20260509041609 | 55 | 318 | 0.0 | 0.0 | 0.00 | 0.00 | 0.00 | 88 | 1011.0 |
| 20260509041106 | 56 | 318 | 0.0 | 0.0 | 0.00 | 0.00 | 0.00 | 88 | 1010.8 |
| 20260509040605 | 56 | 318 | 0.0 | 0.0 | 0.00 | 0.00 | 0.00 | 87 | 1011.0 |
| 20260509040101 | 56 | 318 | 0.0 | 0.0 | 0.00 | 0.00 | 0.00 | 86 | 1011.0 |
| 20260509035558 | 57 | 319 | 0.0 | 0.0 | 0.00 | 0.00 | 0.00 | 85 | 1010.7 |
| 20260509035054 | 57 | 319 | 0.0 | 0.0 | 0.00 | 0.00 | 0.00 | 84 | 1010.7 |
| 20260509034553 | 57 | 319 | 0.0 | 0.0 | 0.00 | 0.00 | 0.00 | 83 | 1010.9 |
| 20260509034049 | 57 | 299 | 0.0 | 0.9 | 0.00 | 0.00 | 0.00 | 84 | 1010.7 |
| 20260509033547 | 57 | 298 | 0.0 | 0.0 | 0.00 | 0.00 | 0.00 | 84 | 1010.6 |
| 20260509033043 | 58 | 299 | 0.9 | 0.9 | 0.00 | 0.00 | 0.00 | 83 | 1010.5 |
| 20260509032541 | 59 | 279 | 0.0 | 0.0 | 0.00 | 0.00 | 0.00 | 81 | 1010.4 |
| 20260509032038 | 60 | 300 | 0.0 | 0.0 | 0.00 | 0.00 | 0.00 | 77 | 1010.4 |
| 20260509031535 | 61 | 286 | 0.0 | 0.0 | 0.00 | 0.00 | 0.00 | 77 | 1010.4 |
| 20260509031032 | 62 | 286 | 0.0 | 0.0 | 0.00 | 0.00 | 0.00 | 71 | 1010.4 |
| 20260509030531 | 64 | 256 | 0.0 | 0.0 | 0.00 | 0.00 | 0.00 | 71 | 1010.2 |
| 20260509030027 | 64 | 294 | 0.9 | 0.9 | 0.00 | 0.00 | 0.00 | 65 | 1009.9 |
| 20260509025523 | 63 | 295 | 1.7 | 2.6 | 0.00 | 0.00 | 0.00 | 66 | 1009.7 |
| 20260509025019 | 63 | 277 | 0.0 | 0.0 | 0.00 | 0.00 | 0.00 | 75 | 1009.9 |
| 20260509024515 | 64 | 273 | 0.0 | 0.0 | 0.00 | 0.00 | 0.00 | 68 | 1009.7 |
| 20260509024012 | 62 | 289 | 1.7 | 2.6 | 0.00 | 0.00 | 0.00 | 70 | 1009.7 |
| 20260509023509 | 60 | 294 | 1.7 | 2.6 | 0.00 | 0.00 | 0.00 | 76 | 1009.5 |
| 20260509023006 | 61 | 241 | 0.0 | 0.0 | 0.00 | 0.00 | 0.00 | 80 | 1009.5 |
| 20260509022502 | 61 | 249 | 0.0 | 0.9 | 0.00 | 0.00 | 0.00 | 75 | 1009.2 |
| 20260509022000 | 60 | 284 | 0.0 | 0.0 | 0.00 | 0.00 | 0.00 | 82 | 1009.0 |
| 20260509021457 | 60 | 295 | 0.0 | 0.0 | 0.00 | 0.00 | 0.00 | 81 | 1008.9 |
| 20260509020954 | 61 | 228 | 0.0 | 0.9 | 0.00 | 0.00 | 0.00 | 79 | 1008.8 |
| 20260509020452 | 62 | 326 | 0.9 | 0.9 | 0.00 | 0.00 | 0.00 | 78 | 1008.4 |
| 20260509015949 | 62 | 302 | 0.0 | 0.9 | 0.00 | 0.00 | 0.00 | 76 | 1008.4 |
| 20260509015448 | 62 | 281 | 0.0 | 0.0 | 0.00 | 0.00 | 0.00 | 74 | 1008.3 |
| 20260509014944 | 63 | 281 | 0.0 | 0.0 | 0.00 | 0.00 | 0.00 | 74 | 1008.0 |
| 20260509014441 | 63 | 282 | 0.0 | 0.0 | 0.00 | 0.00 | 0.00 | 70 | 1007.9 |
| 20260509013937 | 64 | 281 | 0.0 | 0.0 | 0.00 | 0.00 | 0.00 | 71 | 1007.6 |
| 20260509013434 | 66 | 343 | 0.0 | 0.0 | 0.00 | 0.00 | 0.00 | 71 | 1007.5 |
| 20260509012930 | 67 | 13 | 0.9 | 0.9 | 0.00 | 0.00 | 0.00 | 62 | 1007.2 |
| 20260509012427 | 67 | 315 | 0.0 | 0.9 | 0.00 | 0.00 | 0.00 | 59 | 1007.4 |
| 20260509011924 | 67 | 309 | 0.0 | 0.9 | 0.00 | 0.00 | 0.00 | 61 | 1007.3 |
| 20260509011421 | 68 | 280 | 0.0 | 0.0 | 0.00 | 0.00 | 0.00 | 60 | 1007.2 |
| 20260509010919 | 67 | 283 | 0.0 | 0.0 | 0.00 | 0.00 | 0.00 | 61 | 1007.0 |
| 20260509010416 | 67 | 122 | 0.9 | 0.9 | 0.00 | 0.00 | 0.00 | 62 | 1006.8 |
| 20260509005913 | 67 | 209 | 0.9 | 0.9 | 0.00 | 0.00 | 0.00 | 60 | 1007.1 |
| 20260509005411 | 68 | 203 | 1.7 | 2.6 | 0.00 | 0.00 | 0.00 | 61 | 1007.3 |
| 20260509004911 | 67 | 322 | 2.6 | 3.5 | 0.00 | 0.00 | 0.00 | 61 | 1007.8 |
| 20260509004408 | 68 | 253 | 0.9 | 0.9 | 0.00 | 0.00 | 0.00 | 61 | 1007.7 |
| 20260509003905 | 68 | 339 | 0.9 | 0.9 | 0.00 | 0.00 | 0.00 | 58 | 1007.2 |
| 20260509003403 | 69 | 339 | 1.7 | 2.6 | 0.00 | 0.00 | 0.00 | 55 | 1007.6 |
| 20260509002900 | 69 | 326 | 2.6 | 3.5 | 0.00 | 0.00 | 0.00 | 57 | 1007.8 |
| 20260509002358 | 70 | 315 | 1.7 | 2.6 | 0.00 | 0.00 | 0.00 | 56 | 1007.4 |
| 20260509001855 | 70 | 204 | 6.1 | 8.7 | 0.00 | 0.00 | 0.00 | 52 | 1007.1 |
| 20260509001351 | 70 | 322 | 0.0 | 2.6 | 0.00 | 0.00 | 0.00 | 51 | 1006.5 |
| 20260509000848 | 69 | 255 | 8.7 | 13.0 | 0.00 | 0.00 | 0.00 | 48 | 1006.3 |
| 20260509000348 | 69 | 305 | 0.9 | 2.6 | 0.00 | 0.00 | 0.00 | 55 | 1006.2 |
| 20260508235842 | 69 | 114 | 2.6 | 3.5 | 0.00 | 0.00 | 0.00 | 57 | 1006.3 |
| 20260508235339 | 68 | 227 | 4.3 | 7.0 | 0.00 | 0.00 | 0.00 | 63 | 1007.2 |
| 20260508234836 | 68 | 206 | 4.3 | 7.0 | 0.00 | 0.00 | 0.00 | 61 | 1007.1 |
| 20260508234332 | 68 | 194 | 7.0 | 7.0 | 0.00 | 0.00 | 0.00 | 62 | 1006.8 |
| 20260508233831 | 69 | 271 | 0.9 | 0.9 | 0.00 | 0.00 | 0.00 | 65 | 1007.5 |
| 20260508233330 | 68 | 181 | 4.3 | 6.1 | 0.00 | 0.00 | 0.00 | 62 | 1007.4 |
| 20260508232826 | 68 | 227 | 3.5 | 4.3 | 0.00 | 0.00 | 0.00 | 64 | 1008.0 |
| 20260508232323 | 68 | 241 | 0.0 | 0.9 | 0.00 | 0.00 | 0.00 | 70 | 1008.1 |
| 20260508231821 | 69 | 23 | 1.7 | 2.6 | 0.00 | 0.00 | 0.00 | 66 | 1008.0 |
| 20260508231317 | 69 | 156 | 0.9 | 0.9 | 0.00 | 0.00 | 0.00 | 66 | 1008.3 |
| 20260508230814 | 70 | 291 | 0.9 | 0.9 | 0.00 | 0.00 | 0.00 | 63 | 1008.3 |
| 20260508230310 | 71 | 261 | 0.0 | 0.0 | 0.00 | 0.00 | 0.00 | 58 | 1008.2 |
| 20260508225808 | 72 | 139 | 3.5 | 3.5 | 0.00 | 0.00 | 0.00 | 56 | 1007.9 |
| 20260508225306 | 72 | 209 | 0.0 | 0.0 | 0.00 | 0.00 | 0.00 | 56 | 1008.1 |
| 20260508224803 | 72 | 281 | 0.9 | 0.9 | 0.00 | 0.00 | 0.00 | 55 | 1008.2 |
| 20260508224300 | 73 | 309 | 0.9 | 0.9 | 0.00 | 0.00 | 0.00 | 54 | 1008.5 |
| 20260508223757 | 73 | 273 | 0.0 | 0.9 | 0.00 | 0.00 | 0.00 | 53 | 1008.7 |
| 20260508223255 | 74 | 284 | 1.7 | 2.6 | 0.00 | 0.00 | 0.00 | 51 | 1008.9 |
| 20260508222752 | 74 | 285 | 1.7 | 2.6 | 0.00 | 0.00 | 0.00 | 52 | 1008.8 |
| 20260508222249 | 74 | 75 | 0.9 | 0.9 | 0.00 | 0.00 | 0.00 | 51 | 1009.0 |
| 20260508221745 | 74 | 269 | 1.7 | 2.6 | 0.00 | 0.00 | 0.00 | 49 | 1008.8 |
| 20260508221241 | 75 | 277 | 1.7 | 2.6 | 0.00 | 0.00 | 0.00 | 50 | 1008.7 |
| 20260508220737 | 75 | 216 | 1.7 | 2.6 | 0.00 | 0.00 | 0.00 | 52 | 1008.7 |
| 20260508220234 | 77 | 12 | 1.7 | 4.3 | 0.00 | 0.00 | 0.00 | 48 | 1008.4 |
| 20260508215730 | 77 | 274 | 1.7 | 2.6 | 0.00 | 0.00 | 0.00 | 46 | 1008.2 |
| 20260508215227 | 77 | 260 | 0.9 | 0.9 | 0.00 | 0.00 | 0.00 | 43 | 1008.2 |
| 20260508214724 | 77 | 255 | 3.5 | 4.3 | 0.00 | 0.00 | 0.00 | 43 | 1008.2 |
| 20260508214222 | 78 | 207 | 7.0 | 8.7 | 0.00 | 0.00 | 0.00 | 43 | 1008.0 |
| 20260508213718 | 78 | 210 | 1.7 | 2.6 | 0.00 | 0.00 | 0.00 | 45 | 1008.1 |
| 20260508213215 | 80 | 275 | 0.0 | 0.9 | 0.00 | 0.00 | 0.00 | 45 | 1008.1 |
| 20260508212711 | 81 | 290 | 0.0 | 0.9 | 0.00 | 0.00 | 0.00 | 41 | 1008.2 |
| 20260508212208 | 80 | 278 | 1.7 | 2.6 | 0.00 | 0.00 | 0.00 | 43 | 1008.2 |
| 20260508211703 | 80 | 189 | 4.3 | 6.1 | 0.00 | 0.00 | 0.00 | 42 | 1008.2 |
| 20260508211159 | 81 | 305 | 0.9 | 0.9 | 0.00 | 0.00 | 0.00 | 44 | 1008.3 |
| 20260508210657 | 80 | 285 | 1.7 | 3.5 | 0.00 | 0.00 | 0.00 | 43 | 1008.4 |
| 20260508210154 | 79 | 272 | 0.0 | 0.9 | 0.00 | 0.00 | 0.00 | 47 | 1008.5 |
| 20260508205651 | 79 | 324 | 1.7 | 2.6 | 0.00 | 0.00 | 0.00 | 41 | 1008.7 |
| 20260508205147 | 79 | 238 | 0.0 | 0.0 | 0.00 | 0.00 | 0.00 | 46 | 1008.5 |
| 20260508204643 | 77 | 261 | 1.7 | 2.6 | 0.00 | 0.00 | 0.00 | 45 | 1008.5 |
| 20260508204139 | 78 | 243 | 6.1 | 7.0 | 0.00 | 0.00 | 0.00 | 43 | 1008.5 |
| 20260508203636 | 77 | 211 | 7.8 | 10.4 | 0.00 | 0.00 | 0.00 | 41 | 1008.5 |
| 20260508203132 | 78 | 188 | 7.0 | 8.7 | 0.00 | 0.00 | 0.00 | 42 | 1008.6 |
| 20260508202628 | 78 | 219 | 3.5 | 4.3 | 0.00 | 0.00 | 0.00 | 43 | 1008.8 |
| 20260508202125 | 76 | 209 | 3.5 | 3.5 | 0.00 | 0.00 | 0.00 | 41 | 1008.8 |
| 20260508201622 | 77 | 65 | 4.3 | 6.1 | 0.00 | 0.00 | 0.00 | 43 | 1008.9 |
| 20260508201119 | 76 | 220 | 7.0 | 9.6 | 0.00 | 0.00 | 0.00 | 43 | 1009.2 |
| 20260508200616 | 77 | 233 | 7.8 | 9.6 | 0.00 | 0.00 | 0.00 | 42 | 1009.2 |
| 20260508200112 | 77 | 245 | 5.2 | 8.7 | 0.00 | 0.00 | 0.00 | 43 | 1009.3 |
| 20260508195609 | 77 | 254 | 5.2 | 7.0 | 0.00 | 0.00 | 0.00 | 42 | 1009.2 |
| 20260508195105 | 77 | 138 | 3.5 | 4.3 | 0.00 | 0.00 | 0.00 | 44 | 1009.2 |
| 20260508194602 | 76 | 185 | 3.5 | 7.0 | 0.00 | 0.00 | 0.00 | 46 | 1009.3 |
| 20260508194059 | 77 | 198 | 10.4 | 13.0 | 0.00 | 0.00 | 0.00 | 41 | 1009.2 |
| 20260508193555 | 77 | 242 | 1.7 | 2.6 | 0.00 | 0.00 | 0.00 | 45 | 1009.4 |
| 20260508193052 | 77 | 202 | 4.3 | 4.3 | 0.00 | 0.00 | 0.00 | 47 | 1009.5 |
| 20260508192549 | 77 | 89 | 3.5 | 4.3 | 0.00 | 0.00 | 0.00 | 45 | 1009.6 |
| 20260508192046 | 76 | 202 | 5.2 | 6.1 | 0.00 | 0.00 | 0.00 | 43 | 1009.7 |
| 20260508191543 | 75 | 251 | 5.2 | 6.1 | 0.00 | 0.00 | 0.00 | 45 | 1009.9 |
| 20260508191039 | 75 | 190 | 2.6 | 3.5 | 0.00 | 0.00 | 0.00 | 45 | 1010.1 |
| 20260508190537 | 75 | 206 | 1.7 | 2.6 | 0.00 | 0.00 | 0.00 | 48 | 1010.1 |
| 20260508190033 | 75 | 183 | 2.6 | 3.5 | 0.00 | 0.00 | 0.00 | 47 | 1010.2 |
| 20260508185530 | 75 | 216 | 3.5 | 6.1 | 0.00 | 0.00 | 0.00 | 49 | 1010.2 |
| 20260508185028 | 74 | 232 | 1.7 | 2.6 | 0.00 | 0.00 | 0.00 | 54 | 1010.4 |
| 20260508184525 | 74 | 184 | 4.3 | 7.0 | 0.00 | 0.00 | 0.00 | 51 | 1010.3 |
| 20260508184022 | 73 | 206 | 7.0 | 8.7 | 0.00 | 0.00 | 0.00 | 49 | 1010.0 |
| 20260508183518 | 74 | 190 | 8.7 | 12.2 | 0.00 | 0.00 | 0.00 | 48 | 1010.2 |
| 20260508183014 | 73 | 66 | 0.9 | 0.9 | 0.00 | 0.00 | 0.00 | 52 | 1010.2 |
| 20260508182511 | 73 | 200 | 6.1 | 7.0 | 0.00 | 0.00 | 0.00 | 48 | 1010.4 |
| 20260508182007 | 73 | 198 | 5.2 | 7.0 | 0.00 | 0.00 | 0.00 | 48 | 1010.4 |
| 20260508181503 | 73 | 191 | 5.2 | 7.0 | 0.00 | 0.00 | 0.00 | 50 | 1010.4 |
| 20260508181001 | 73 | 244 | 5.2 | 7.0 | 0.00 | 0.00 | 0.00 | 48 | 1010.4 |
| 20260508180457 | 73 | 200 | 9.6 | 9.6 | 0.00 | 0.00 | 0.00 | 48 | 1010.6 |
| 20260508175953 | 74 | 205 | 7.8 | 12.2 | 0.00 | 0.00 | 0.00 | 46 | 1010.7 |
| 20260508175449 | 74 | 168 | 11.3 | 13.9 | 0.00 | 0.00 | 0.00 | 47 | 1010.6 |
| 20260508174948 | 74 | 87 | 3.5 | 3.5 | 0.00 | 0.00 | 0.00 | 51 | 1010.8 |
| 20260508174445 | 73 | 251 | 5.2 | 8.7 | 0.00 | 0.00 | 0.00 | 51 | 1010.9 |
| 20260508173942 | 73 | 272 | 4.3 | 7.0 | 0.00 | 0.00 | 0.00 | 54 | 1011.1 |
| 20260508173439 | 73 | 199 | 4.3 | 4.3 | 0.00 | 0.00 | 0.00 | 51 | 1011.2 |
| 20260508172934 | 72 | 324 | 2.6 | 3.5 | 0.00 | 0.00 | 0.00 | 54 | 1011.3 |
| 20260508172432 | 72 | 188 | 5.2 | 8.7 | 0.00 | 0.00 | 0.00 | 50 | 1011.3 |
| 20260508171928 | 72 | 200 | 4.3 | 4.3 | 0.00 | 0.00 | 0.00 | 52 | 1011.3 |
| 20260508171425 | 71 | 152 | 3.5 | 3.5 | 0.00 | 0.00 | 0.00 | 54 | 1011.6 |
| 20260508170921 | 72 | 140 | 13.9 | 15.6 | 0.00 | 0.00 | 0.00 | 51 | 1011.7 |
| 20260508170419 | 71 | 266 | 3.5 | 6.1 | 0.00 | 0.00 | 0.00 | 53 | 1011.8 |
| 20260508165915 | 71 | 236 | 4.3 | 6.1 | 0.00 | 0.00 | 0.00 | 56 | 1011.9 |
| 20260508165414 | 71 | 237 | 6.1 | 7.0 | 0.00 | 0.00 | 0.00 | 56 | 1012.1 |
| 20260508164909 | 71 | 134 | 6.1 | 10.4 | 0.00 | 0.00 | 0.00 | 56 | 1012.4 |
| 20260508164406 | 72 | 270 | 4.3 | 6.1 | 0.00 | 0.00 | 0.00 | 57 | 1012.4 |
| 20260508163903 | 71 | 37 | 0.9 | 0.9 | 0.00 | 0.00 | 0.00 | 59 | 1012.4 |
| 20260508163401 | 71 | 182 | 7.8 | 10.4 | 0.00 | 0.00 | 0.00 | 56 | 1012.6 |
| 20260508162856 | 71 | 210 | 6.1 | 7.0 | 0.00 | 0.00 | 0.00 | 59 | 1012.7 |
| 20260508162354 | 71 | 238 | 7.0 | 9.6 | 0.00 | 0.00 | 0.00 | 56 | 1012.7 |
| 20260508161851 | 69 | 324 | 0.9 | 0.9 | 0.00 | 0.00 | 0.00 | 62 | 1012.8 |
| 20260508161348 | 69 | 225 | 7.0 | 10.4 | 0.00 | 0.00 | 0.00 | 61 | 1012.8 |
| 20260508160845 | 69 | 195 | 5.2 | 7.0 | 0.00 | 0.00 | 0.00 | 60 | 1012.8 |
| 20260508160344 | 69 | 239 | 7.0 | 9.6 | 0.00 | 0.00 | 0.00 | 61 | 1013.1 |
| 20260508155840 | 70 | 115 | 4.3 | 6.1 | 0.00 | 0.00 | 0.00 | 61 | 1013.2 |
| 20260508155337 | 69 | 295 | 2.6 | 3.5 | 0.00 | 0.00 | 0.00 | 62 | 1013.3 |
| 20260508154834 | 68 | 204 | 7.0 | 8.7 | 0.00 | 0.00 | 0.00 | 62 | 1013.3 |
| 20260508154332 | 68 | 228 | 2.6 | 3.5 | 0.00 | 0.00 | 0.00 | 63 | 1013.4 |
| 20260508153828 | 68 | 151 | 3.5 | 6.1 | 0.00 | 0.00 | 0.00 | 63 | 1013.6 |
| 20260508153326 | 68 | 240 | 1.7 | 4.3 | 0.00 | 0.00 | 0.00 | 64 | 1013.7 |
| 20260508152821 | 67 | 236 | 7.0 | 10.4 | 0.00 | 0.00 | 0.00 | 65 | 1013.4 |
| 20260508152318 | 66 | 208 | 4.3 | 6.1 | 0.00 | 0.00 | 0.00 | 67 | 1013.5 |
| 20260508151814 | 66 | 255 | 5.2 | 6.1 | 0.00 | 0.00 | 0.00 | 68 | 1013.8 |
| 20260508151311 | 65 | 30 | 7.0 | 12.2 | 0.00 | 0.00 | 0.00 | 70 | 1013.8 |
| 20260508150808 | 65 | 220 | 9.6 | 12.2 | 0.00 | 0.00 | 0.00 | 68 | 1013.9 |
| 20260508150304 | 65 | 176 | 4.3 | 6.1 | 0.00 | 0.00 | 0.00 | 68 | 1013.8 |
| 20260508145801 | 65 | 177 | 7.0 | 9.6 | 0.00 | 0.00 | 0.00 | 69 | 1014.0 |
| 20260508145257 | 65 | 178 | 6.1 | 8.7 | 0.00 | 0.00 | 0.00 | 69 | 1014.1 |
| 20260508144754 | 64 | 185 | 4.3 | 6.1 | 0.00 | 0.00 | 0.00 | 70 | 1014.0 |
| 20260508144252 | 64 | 268 | 0.0 | 2.6 | 0.00 | 0.00 | 0.00 | 72 | 1014.0 |
| 20260508143749 | 63 | 203 | 9.6 | 13.0 | 0.00 | 0.00 | 0.00 | 73 | 1014.1 |
| 20260508143246 | 63 | 268 | 4.3 | 4.3 | 0.00 | 0.00 | 0.00 | 72 | 1014.2 |
| 20260508142742 | 64 | 214 | 7.0 | 9.6 | 0.00 | 0.00 | 0.00 | 72 | 1014.3 |
| 20260508142239 | 64 | 229 | 5.2 | 7.0 | 0.00 | 0.00 | 0.00 | 72 | 1014.1 |
| 20260508141736 | 63 | 207 | 7.0 | 8.7 | 0.00 | 0.00 | 0.00 | 72 | 1014.1 |
| 20260508141233 | 63 | 249 | 5.2 | 7.0 | 0.00 | 0.00 | 0.00 | 72 | 1014.3 |
| 20260508140730 | 63 | 212 | 5.2 | 6.1 | 0.00 | 0.00 | 0.00 | 74 | 1014.2 |
| 20260508140227 | 63 | 225 | 5.2 | 10.4 | 0.00 | 0.00 | 0.00 | 75 | 1014.0 |
| 20260508135723 | 62 | 252 | 1.7 | 2.6 | 0.00 | 0.00 | 0.00 | 75 | 1014.2 |
| 20260508135219 | 62 | 202 | 2.6 | 3.5 | 0.00 | 0.00 | 0.00 | 77 | 1014.4 |
| 20260508134715 | 61 | 230 | 4.3 | 6.1 | 0.00 | 0.00 | 0.00 | 77 | 1014.2 |
| 20260508134213 | 61 | 232 | 4.3 | 7.0 | 0.00 | 0.00 | 0.00 | 78 | 1014.0 |
| 20260508133709 | 60 | 110 | 3.5 | 3.5 | 0.00 | 0.00 | 0.00 | 79 | 1014.1 |
| 20260508133207 | 59 | 269 | 4.3 | 6.1 | 0.00 | 0.00 | 0.00 | 80 | 1014.0 |
| 20260508132705 | 59 | 212 | 3.5 | 4.3 | 0.00 | 0.00 | 0.00 | 81 | 1014.0 |
| 20260508132202 | 58 | 231 | 4.3 | 6.1 | 0.00 | 0.00 | 0.00 | 81 | 1014.0 |
| 20260508131657 | 57 | 199 | 3.5 | 4.3 | 0.00 | 0.00 | 0.00 | 81 | 1013.9 |
| 20260508131153 | 57 | 248 | 3.5 | 4.3 | 0.00 | 0.00 | 0.00 | 81 | 1013.9 |
| 20260508130650 | 56 | 216 | 2.6 | 4.3 | 0.00 | 0.00 | 0.00 | 82 | 1014.1 |
| 20260508130147 | 56 | 161 | 1.7 | 3.5 | 0.00 | 0.00 | 0.00 | 84 | 1013.8 |
| 20260508125643 | 55 | 192 | 0.9 | 2.6 | 0.00 | 0.00 | 0.00 | 87 | 1014.2 |
| 20260508125140 | 54 | 103 | 0.9 | 2.6 | 0.00 | 0.00 | 0.00 | 91 | 1014.0 |
| 20260508124638 | 53 | 147 | 1.7 | 2.6 | 0.00 | 0.00 | 0.00 | 94 | 1014.0 |
| 20260508124135 | 52 | 221 | 0.0 | 0.9 | 0.00 | 0.00 | 0.00 | 97 | 1014.0 |
| 20260508123633 | 51 | 193 | 3.5 | 4.3 | 0.00 | 0.00 | 0.00 | 98 | 1013.9 |
| 20260508123130 | 50 | 183 | 1.7 | 2.6 | 0.00 | 0.00 | 0.00 | 99 | 1014.1 |
| 20260508122626 | 50 | 170 | 1.7 | 2.6 | 0.00 | 0.00 | 0.00 | 99 | 1014.1 |
| 20260508122124 | 48 | 195 | 0.0 | 0.0 | 0.00 | 0.00 | 0.00 | 99 | 1014.1 |
| 20260508121622 | 47 | 188 | 0.9 | 0.9 | 0.00 | 0.00 | 0.00 | 99 | 1013.9 |
| 20260508121120 | 46 | 87 | 0.0 | 0.0 | 0.00 | 0.00 | 0.00 | 99 | 1014.1 |
| 20260508120617 | 44 | 65 | 0.0 | 0.0 | 0.00 | 0.00 | 0.00 | 99 | 1014.1 |
| 20260508120115 | 43 | 289 | 0.0 | 0.0 | 0.00 | 0.00 | 0.00 | 99 | 1014.0 |
| 20260508115612 | 43 | 258 | 0.0 | 0.0 | 0.00 | 0.00 | 0.00 | 99 | 1014.0 |
| 20260508115109 | 42 | 289 | 0.0 | 0.9 | 0.00 | 0.00 | 0.00 | 99 | 1014.0 |
| 20260508114606 | 42 | 274 | 0.0 | 0.0 | 0.00 | 0.00 | 0.00 | 99 | 1014.0 |
| 20260508114102 | 42 | 272 | 0.0 | 0.0 | 0.00 | 0.00 | 0.00 | 99 | 1014.1 |
| 20260508113559 | 42 | 272 | 0.0 | 0.0 | 0.00 | 0.00 | 0.00 | 99 | 1013.9 |
| 20260508113057 | 42 | 297 | 0.0 | 0.0 | 0.00 | 0.00 | 0.00 | 99 | 1013.8 |
| 20260508112553 | 43 | 263 | 0.0 | 0.0 | 0.00 | 0.00 | 0.00 | 99 | 1013.6 |
| 20260508112050 | 43 | 263 | 0.0 | 0.0 | 0.00 | 0.00 | 0.00 | 99 | 1013.8 |
| 20260508111547 | 43 | 262 | 0.0 | 0.0 | 0.00 | 0.00 | 0.00 | 99 | 1013.5 |
| 20260508111044 | 43 | 245 | 0.0 | 0.0 | 0.00 | 0.00 | 0.00 | 99 | 1013.4 |
| 20260508110542 | 43 | 245 | 0.0 | 0.0 | 0.00 | 0.00 | 0.00 | 99 | 1013.4 |
| 20260508110038 | 42 | 245 | 0.0 | 0.0 | 0.00 | 0.00 | 0.00 | 99 | 1013.4 |
| 20260508105538 | 42 | 245 | 0.0 | 0.0 | 0.00 | 0.00 | 0.00 | 99 | 1013.4 |
| 20260508105036 | 42 | 245 | 0.0 | 0.0 | 0.00 | 0.00 | 0.00 | 99 | 1013.5 |
| 20260508104534 | 42 | 245 | 0.0 | 0.0 | 0.00 | 0.00 | 0.00 | 99 | 1013.4 |
| 20260508104030 | 42 | 245 | 0.0 | 0.0 | 0.00 | 0.00 | 0.00 | 99 | 1013.3 |
| 20260508103527 | 42 | 245 | 0.0 | 0.0 | 0.00 | 0.00 | 0.00 | 99 | 1013.4 |
| 20260508103025 | 42 | 245 | 0.0 | 0.0 | 0.00 | 0.00 | 0.00 | 99 | 1013.3 |
| 20260508102522 | 42 | 245 | 0.0 | 0.0 | 0.00 | 0.00 | 0.00 | 99 | 1013.5 |
| 20260508102020 | 42 | 245 | 0.0 | 0.0 | 0.00 | 0.00 | 0.00 | 99 | 1013.3 |
| 20260508101517 | 42 | 245 | 0.0 | 0.0 | 0.00 | 0.00 | 0.00 | 99 | 1013.2 |
| 20260508101014 | 42 | 245 | 0.0 | 0.0 | 0.00 | 0.00 | 0.00 | 98 | 1013.1 |
| 20260508100512 | 42 | 245 | 0.0 | 0.0 | 0.00 | 0.00 | 0.00 | 98 | 1013.0 |
| 20260508100009 | 42 | 245 | 0.0 | 0.0 | 0.00 | 0.00 | 0.00 | 99 | 1013.0 |
| 20260508095506 | 42 | 245 | 0.0 | 0.0 | 0.00 | 0.00 | 0.00 | 99 | 1013.1 |
| 20260508095003 | 42 | 245 | 0.0 | 0.0 | 0.00 | 0.00 | 0.00 | 98 | 1013.1 |
| 20260508094500 | 42 | 245 | 0.0 | 0.0 | 0.00 | 0.00 | 0.00 | 98 | 1013.1 |
| 20260508093956 | 43 | 245 | 0.0 | 0.0 | 0.00 | 0.00 | 0.00 | 98 | 1013.2 |
| 20260508093454 | 42 | 245 | 0.0 | 0.0 | 0.00 | 0.00 | 0.00 | 98 | 1013.0 |
| 20260508092951 | 42 | 245 | 0.0 | 0.0 | 0.00 | 0.00 | 0.00 | 98 | 1012.8 |
| 20260508092449 | 42 | 244 | 0.0 | 0.0 | 0.00 | 0.00 | 0.00 | 98 | 1013.0 |
| 20260508091947 | 42 | 244 | 0.0 | 0.0 | 0.00 | 0.00 | 0.00 | 98 | 1013.0 |
| 20260508091443 | 42 | 244 | 0.0 | 0.0 | 0.00 | 0.00 | 0.00 | 98 | 1013.2 |
| 20260508090941 | 42 | 245 | 0.0 | 0.0 | 0.00 | 0.00 | 0.00 | 98 | 1013.1 |
| 20260508090440 | 42 | 245 | 0.0 | 0.0 | 0.00 | 0.00 | 0.00 | 98 | 1013.0 |
| 20260508085935 | 42 | 245 | 0.0 | 0.0 | 0.00 | 0.00 | 0.00 | 98 | 1013.0 |
| 20260508085432 | 42 | 244 | 0.0 | 0.0 | 0.00 | 0.00 | 0.00 | 98 | 1012.7 |
| 20260508084929 | 43 | 245 | 0.0 | 0.0 | 0.00 | 0.00 | 0.00 | 98 | 1013.0 |
| 20260508084425 | 42 | 245 | 0.0 | 0.0 | 0.00 | 0.00 | 0.00 | 98 | 1013.1 |
| 20260508083923 | 42 | 244 | 0.0 | 0.0 | 0.00 | 0.00 | 0.00 | 98 | 1013.1 |
| 20260508083420 | 42 | 244 | 0.0 | 0.0 | 0.00 | 0.00 | 0.00 | 98 | 1012.8 |
| 20260508082920 | 42 | 244 | 0.0 | 0.0 | 0.00 | 0.00 | 0.00 | 98 | 1013.1 |
| 20260508082418 | 43 | 244 | 0.0 | 0.0 | 0.00 | 0.00 | 0.00 | 98 | 1013.1 |
| 20260508081916 | 43 | 244 | 0.0 | 0.0 | 0.00 | 0.00 | 0.00 | 98 | 1013.1 |
| 20260508081412 | 43 | 244 | 0.0 | 0.0 | 0.00 | 0.00 | 0.00 | 98 | 1013.3 |
| 20260508080908 | 43 | 244 | 0.0 | 0.0 | 0.00 | 0.00 | 0.00 | 98 | 1013.3 |
| 20260508080407 | 43 | 245 | 0.0 | 0.0 | 0.00 | 0.00 | 0.00 | 98 | 1013.4 |
| 20260508075903 | 44 | 245 | 0.0 | 0.0 | 0.00 | 0.00 | 0.00 | 98 | 1013.4 |
| 20260508075400 | 43 | 245 | 0.0 | 0.0 | 0.00 | 0.00 | 0.00 | 98 | 1013.3 |
| 20260508074858 | 43 | 244 | 0.0 | 0.0 | 0.00 | 0.00 | 0.00 | 98 | 1013.4 |
| 20260508074354 | 43 | 244 | 0.0 | 0.0 | 0.00 | 0.00 | 0.00 | 98 | 1013.4 |
| 20260508073852 | 44 | 245 | 0.0 | 0.0 | 0.00 | 0.00 | 0.00 | 98 | 1013.4 |
| 20260508073350 | 43 | 245 | 0.0 | 0.0 | 0.00 | 0.00 | 0.00 | 98 | 1013.6 |
| 20260508072846 | 43 | 245 | 0.0 | 0.0 | 0.00 | 0.00 | 0.00 | 98 | 1013.6 |
| 20260508072342 | 43 | 245 | 0.0 | 0.0 | 0.00 | 0.00 | 0.00 | 98 | 1013.5 |
| 20260508071839 | 43 | 244 | 0.0 | 0.0 | 0.00 | 0.00 | 0.00 | 98 | 1013.8 |
| 20260508071338 | 44 | 244 | 0.0 | 0.0 | 0.00 | 0.00 | 0.00 | 98 | 1013.7 |
| 20260508070835 | 44 | 244 | 0.0 | 0.0 | 0.00 | 0.00 | 0.00 | 98 | 1013.7 |
| 20260508070333 | 44 | 244 | 0.0 | 0.0 | 0.00 | 0.00 | 0.00 | 97 | 1013.8 |
| 20260508065831 | 44 | 244 | 0.0 | 0.0 | 0.00 | 0.00 | 0.00 | 97 | 1014.1 |
| 20260508065329 | 44 | 244 | 0.0 | 0.0 | 0.00 | 0.00 | 0.00 | 97 | 1014.0 |
| 20260508064827 | 44 | 244 | 0.0 | 0.0 | 0.00 | 0.00 | 0.00 | 97 | 1014.0 |
| 20260508064324 | 45 | 245 | 0.0 | 0.0 | 0.00 | 0.00 | 0.00 | 97 | 1014.1 |
| 20260508063821 | 45 | 245 | 0.0 | 0.0 | 0.00 | 0.00 | 0.00 | 97 | 1014.1 |
| 20260508063320 | 45 | 245 | 0.0 | 0.0 | 0.00 | 0.00 | 0.00 | 97 | 1014.0 |
| 20260508062816 | 45 | 245 | 0.0 | 0.0 | 0.00 | 0.00 | 0.00 | 97 | 1013.9 |
| 20260508062314 | 45 | 245 | 0.0 | 0.0 | 0.00 | 0.00 | 0.00 | 97 | 1014.2 |
| 20260508061810 | 45 | 245 | 0.0 | 0.0 | 0.00 | 0.00 | 0.00 | 97 | 1014.1 |